Location: *
(48.1028°N, 20.7125°E)
Time: 13:23:10
(UTC+00:00)

Daily predictions for brighter satellites

Satellite Brightness Start Highest point End
(mag) Time Altitude Azimuth Time Altitude Azimuth Time Altitude Azimuth
STARLINK-1078 3.6 17:30:12 10° WNW 17:34:16 84° SSW 17:38:20 10° ESE
STARLINK-1192 3.9 17:30:21 10° SW 17:34:17 48° SE 17:38:14 10° ENE
Cosmos 1805 3.2 17:30:55 10° S 17:34:49 73° E 17:38:44 10° NNE
ARGOS 3.6 17:30:04 10° SE 17:35:09 43° ENE 17:40:14 10° N
STARLINK-1121 4.2 17:32:31 10° WNW 17:36:32 49° NNE 17:40:34 10° E
Cosmos 1048 Rocket 4.1 17:33:47 10° SSW 17:38:56 82° WNW 17:44:10 10° NNE
STARLINK-1108 3.6 17:35:00 10° WNW 17:39:05 79° SSW 17:43:08 10° ESE
STARLINK-1244 3.8 17:35:13 10° SW 17:39:11 51° SE 17:43:10 10° ENE
STARLINK-1106 4.2 17:37:28 10° WNW 17:41:31 50° NNE 17:45:34 10° E
Meteor 1-24 Rocket 3.6 17:36:01 10° N 17:41:36 74° ENE 17:46:57 10° SSE
Cosmos 494 Rocket 4.0 17:36:53 10° S 17:41:58 66° ESE 17:47:09 10° NNE
Okean 1-7 Rocket 3.5 17:38:25 10° N 17:42:50 79° E 17:47:13 10° SSE
STARLINK-1071 3.7 17:39:39 10° WNW 17:43:43 75° SSW 17:47:46 10° SE
STARLINK-1138 3.7 17:39:49 10° SW 17:43:49 55° SE 17:47:50 10° ENE
STARLINK-1112 4.1 17:42:29 10° WNW 17:46:33 52° NNE 17:50:35 10° E
NOSS 0 Rocket 4.4 17:40:46 10° SW 17:46:56 67° WNW 17:53:08 10° NNE
CZ-2C R/B 3.1 17:43:01 10° SSE 17:47:55 55° ENE 17:52:38 10° N
STARLINK-1110 3.8 17:44:10 10° WNW 17:48:13 70° SSW 17:52:15 10° SE
STARLINK-1143 3.7 17:44:40 10° SW 17:48:41 59° SSE 17:52:44 10° ENE
STARLINK-1234 2.9 17:45:46 10° WSW 17:48:44 73° NNW 17:51:42 10° ENE
Cosmos 1331 Rocket 4.1 17:43:51 10° NNW 17:49:03 84° WSW 17:54:11 10° SSE
STARLINK-1124 3.8 17:45:14 10° WNW 17:49:22 70° SSW 17:53:29 10° SE
STARLINK-1128 4.1 17:47:28 10° WNW 17:51:33 54° NNE 17:55:22 12° E
USA 81 4.1 17:46:25 10° N 17:51:43 87° W 17:56:59 10° S
USA 186 2.1 17:48:27 10° SSE 17:51:49 53° ENE 17:55:07 10° N
Cosmos 1544 Rocket 3.7 17:48:06 10° S 17:52:21 53° E 17:56:42 10° NNE
Cosmos 1745 Rocket 4.2 17:47:02 10° NNW 17:53:22 78° W 17:59:35 10° S
MOS 1 4.3 17:49:23 10° SSE 17:54:59 67° ENE 18:00:36 10° N
SPOT 3 Rocket 4.1 17:50:20 10° SE 17:55:10 40° ENE 18:00:01 10° N
Cosmos 1470 3.4 17:52:43 10° SSE 17:56:13 34° E 17:59:46 10° NNE
STARLINK-1113 4.0 17:52:27 10° WNW 17:56:32 56° NNE 18:00:08 13° E
Cosmos 2369 Rocket 3.1 17:51:52 10° NNW 17:56:59 32° NE 18:01:25 13° ESE
STARLINK-1241 3.5 17:53:07 10° SW 17:57:08 67° SSE 18:01:10 10° ENE
STARLINK-1122 3.9 17:53:36 10° WNW 17:57:37 62° SSW 18:01:25 11° SE
CZ-4 R/B 4.2 17:56:17 10° SW 17:59:12 20° W 18:02:06 10° NW
STARLINK-1119 4.0 17:57:26 10° WNW 18:01:32 58° NNE 18:04:55 15° E
STARLINK-1239 3.5 17:57:57 10° SW 18:02:00 72° SSE 18:06:02 10° ENE
STARLINK-1126 4.0 17:58:32 10° WNW 18:02:32 57° SW 18:06:09 12° SE
BREEZE-M DEB (TANK) 3.1 17:58:08 10° SW 18:04:14 37° SSE 18:06:13 16° E
Ariane Rocket 3.1 17:59:36 10° SSE 18:04:42 80° WSW 18:09:48 10° NNW
SJ-6B 2.9 18:02:07 10° SSE 18:06:08 63° ENE 18:10:14 10° N
STARLINK-1114 3.9 18:02:27 10° WNW 18:06:34 60° NNE 18:09:45 16° E
STARLINK-1240 3.5 18:02:39 10° SW 18:06:42 76° SSE 18:10:46 10° ENE
STARLINK-1082 4.1 18:03:05 10° WNW 18:07:03 54° SW 18:10:30 13° SE
Cosmos 1733 3.4 18:03:41 10° SSW 18:07:26 73° W 18:11:14 10° N
Cosmos 1726 3.7 18:08:31 16° E 18:08:58 16° E 18:11:23 10° NE
Cosmos 1758 3.6 18:05:51 10° SSE 18:09:45 45° E 18:13:41 10° NNE
Meteor 1-22 Rocket 4.2 18:04:31 10° SSW 18:09:49 83° W 18:15:09 10° N
ARGOS Delta rocket 4.3 18:04:49 10° S 18:09:56 75° W 18:15:20 10° NNW
IRS-1A Rocket 4.5 18:05:03 10° SSE 18:10:42 78° WSW 18:16:31 10° NNW
CZ-2C R/B 4.2 18:06:40 10° NNE 18:11:11 40° E 18:15:36 10° SSE
STARLINK-1216 3.5 18:07:22 10° WSW 18:11:26 81° SSE 18:15:30 10° ENE
STARLINK-1130 (DARKSAT) 3.8 18:07:25 10° WNW 18:11:32 63° NNE 18:14:31 18° E
STARLINK-1100 4.2 18:07:57 10° WNW 18:11:54 50° SW 18:15:10 14° SE
Aureole 2 Rocket 3.7 18:09:18 10° N 18:12:16 25° ENE 18:13:43 19° E
ATLAS CENTAUR R/B 4.4 18:11:35 10° NNW 18:12:38 11° NNW 18:13:40 10° N
STARLINK-1237 3.5 18:12:08 10° WSW 18:16:12 86° SSE 18:20:12 10° ENE
STARLINK-1084 3.8 18:12:23 10° WNW 18:16:31 66° NNE 18:19:17 20° E
STARLINK-1083 4.3 18:12:42 10° WNW 18:16:37 47° SW 18:19:44 15° SSE
Cosmos 1943 Rocket 2.4 18:13:30 10° NNW 18:18:56 54° ENE 18:23:02 18° SE
Meteor 1-21 Rocket 4.4 18:13:32 10° N 18:18:57 49° ENE 18:23:39 13° SE
STARLINK-1209 3.6 18:16:13 10° W 18:19:04 46° NNW 18:21:29 13° NE
STARLINK-1202 3.5 18:16:52 10° WSW 18:20:56 90° NW 18:24:45 12° ENE
STARLINK-1125 4.4 18:17:18 10° WNW 18:21:11 43° SW 18:24:08 16° SSE
STARLINK-1228 3.6 18:18:25 10° W 18:21:13 44° NNW 18:23:29 14° NE
ATLAS 2AS CENTAUR R/B 3.9 18:14:20 10° NW 18:21:24 35° NNE 18:26:55 15° E
SL-14 R/B 3.7 18:17:28 10° NNW 18:21:30 65° W 18:25:29 10° S
STARLINK-1098 3.7 18:17:22 10° WNW 18:21:31 69° NNE 18:24:04 22° ESE
Cosmos 1943 4.4 18:19:43 17° SE 18:21:36 20° E 18:25:36 10° NE
SL-8 R/B 3.7 18:21:39 10° W 18:26:27 86° N 18:29:36 21° E
STARLINK-1123 3.7 18:22:21 10° WNW 18:26:31 73° NNE 18:28:51 25° ESE
ERBS 4.4 18:25:01 10° WNW 18:27:54 25° NNW 18:30:48 10° NE
STARLINK-1246 3.6 18:23:55 10° WSW 18:28:01 83° NNW 18:31:37 13° ENE
Cosmos 2315 Rocket 4.0 18:22:25 10° S 18:28:44 85° E 18:35:09 10° N
USA 234 3.3 18:23:40 10° ENE 18:30:07 57° SE 18:36:32 10° SW
Resurs 1-3 3.6 18:28:09 17° SSE 18:31:25 60° ENE 18:35:45 10° N
STARLINK-1097 3.6 18:27:19 10° WNW 18:31:29 77° NNE 18:33:37 27° ESE
STARLINK-67 4.0 18:31:06 10° WNW 18:33:27 31° NNW 18:34:49 19° NE
STARLINK-1201 3.7 18:30:39 10° W 18:33:51 52° NNW 18:36:07 17° NE
Cosmos 1626 3.2 18:30:24 10° NNW 18:33:58 45° W 18:37:30 10° SSW
Meteor 2-15 Rocket 4.4 18:28:34 10° S 18:34:35 69° E 18:40:38 10° NNE
H-2A R/B 2.8 18:29:42 10° S 18:34:55 55° W 18:40:01 10° NNW
STARLINK-1224 3.7 18:31:10 10° WSW 18:35:14 77° NNW 18:38:30 16° ENE
Aureole 3 3.6 18:32:14 10° S 18:36:13 60° E 18:41:20 10° NNE
STARLINK-1099 3.6 18:32:18 10° WNW 18:36:29 81° NNE 18:38:25 31° ESE
STARLINK-1203 3.7 18:32:54 10° WSW 18:36:53 71° NNW 18:39:58 16° ENE
DMSP B5D2-2 4.2 18:33:02 10° NNE 18:38:09 53° E 18:43:14 10° S
SL-16 R/B 2.3 18:32:50 10° SSW 18:38:30 79° WNW 18:44:13 10° NNE
SL-08 RB Rocket 3.9 18:34:59 10° S 18:39:29 74° WSW 18:44:05 10° NNW
STARLINK-1225 3.7 18:35:49 10° WSW 18:39:53 73° NNW 18:42:58 17° ENE
Resurs 01 Rocket 1.8 18:38:55 26° SE 18:41:10 53° ENE 18:45:29 10° N
STARLINK-1104 3.5 18:37:17 10° WNW 18:41:28 85° NNE 18:43:12 34° ESE
STARLINK-1230 3.8 18:40:34 10° WSW 18:44:38 70° NNW 18:47:32 18° ENE
Meteor 2-15 4.5 18:39:31 10° SSW 18:45:35 82° W 18:51:41 10° N
Cosmos 2228 3.8 18:45:54 30° E 18:45:54 30° E 18:49:37 10° NNE
STARLINK-1144 3.5 18:42:16 10° WNW 18:46:27 89° ENE 18:47:59 38° ESE
STARLINK-1233 3.9 18:44:18 10° W 18:47:18 43° NNW 18:48:52 23° NE
STARLINK-1212 3.9 18:44:46 10° W 18:47:47 43° NNW 18:49:17 24° NE
STARLINK-1105 3.9 18:45:12 10° W 18:48:14 43° NNW 18:49:43 24° NE
STARLINK-1206 3.9 18:45:42 10° W 18:48:42 42° NNW 18:50:09 24° NE
Nadezhda 1 Rocket 4.5 18:45:15 21° SE 18:48:56 40° E 18:54:50 10° NNE
STARLINK-1247 4.0 18:46:09 10° W 18:49:08 42° NNW 18:50:34 24° NE
STARLINK-1243 3.9 18:45:25 10° WSW 18:49:28 67° NNW 18:52:10 20° ENE
STARLINK-1227 4.0 18:46:34 10° W 18:49:35 42° NNW 18:51:02 24° NE
STARLINK-1218 4.0 18:47:04 10° W 18:50:02 42° NNW 18:51:26 25° NE
Abrixas rocket 3.4 18:47:27 10° SW 18:49:06 25° SSW 18:49:06 25° SSW
Cosmos 1992 Rocket 3.9 18:45:01 10° NNW 18:50:16 72° ENE 18:52:56 29° SE
STARLINK-1226 4.0 18:47:30 10° W 18:50:29 42° NNW 18:51:53 25° NE
Cosmos 1953 2.1 18:47:34 15° S 18:50:48 70° E 18:54:46 10° NNE
STARLINK-1254 4.0 18:47:55 10° W 18:50:56 42° NNW 18:52:20 25° NE
STARLINK-1215 4.0 18:48:25 10° W 18:51:24 41° NNW 18:52:45 25° NE
STARLINK-1103 3.5 18:47:14 10° WNW 18:51:24 86° SSW 18:52:45 42° ESE
STARLINK-1231 4.0 18:48:52 10° W 18:51:51 41° NNW 18:53:09 26° NE
STARLINK-1232 4.0 18:49:46 10° W 18:52:45 41° NNW 18:54:02 26° NE
STARLINK-1217 4.0 18:50:14 10° W 18:53:13 41° NNW 18:54:28 26° NE
STARLINK-1208 4.0 18:50:38 10° W 18:53:38 41° NNW 18:54:55 26° NE
STARLINK-1229 4.0 18:51:08 10° W 18:54:06 40° NNW 18:55:20 27° NE
STARLINK-1236 3.9 18:50:12 10° WSW 18:54:15 64° NNW 18:56:46 22° ENE
STARLINK-1271 4.0 18:51:35 10° W 18:54:34 40° NNW 18:55:46 27° NE
STARLINK-1270 4.0 18:52:03 10° W 18:55:01 40° NNW 18:56:13 27° NE
STARLINK-1154 4.0 18:52:30 10° W 18:55:29 40° NNW 18:56:39 27° NE
STARLINK-1197 4.1 18:53:24 10° W 18:56:23 40° NNW 18:57:31 28° NE
STARLINK-1101 3.5 18:52:13 10° WNW 18:56:23 81° SSW 18:57:32 46° SE
SL-24 R/B 4.1 18:52:09 10° NNE 18:56:50 82° WNW 19:00:54 10° SSW
STARLINK-1189 4.1 18:53:52 10° W 18:56:50 39° NNW 18:57:56 28° NE
STARLINK-1187 4.2 18:54:45 10° W 18:57:42 38° NNW 18:58:50 27° NE
STARLINK-1188 4.1 18:54:46 10° W 18:57:45 39° NNW 18:58:49 28° NNE
STARLINK-1198 4.1 18:54:47 10° W 18:57:45 39° NNW 18:58:49 28° NNE
STARLINK-1235 4.2 18:55:30 10° W 18:58:27 36° N 18:59:32 27° NNE
STARLINK-1199 4.1 18:56:43 10° W 18:59:42 39° NNW 19:00:44 29° NNE
STARLINK-1191 4.1 18:57:11 10° W 19:00:09 39° NNW 19:01:10 29° NNE
Cosmos 1603 3.8 18:54:58 10° S 19:00:22 48° ESE 19:05:45 10° NE
STARLINK-1210 4.1 18:57:38 10° W 19:00:37 39° NNW 19:01:36 29° NNE
MetOp-B 4.3 18:58:49 34° SE 19:00:55 55° ENE 19:06:10 10° N
STARLINK-1221 4.1 18:58:04 10° W 19:01:04 39° NNW 19:02:02 30° NNE
STARLINK-1102 3.6 18:57:12 10° WNW 19:01:21 76° SSW 19:02:19 51° SE
STARLINK-1219 4.1 18:58:32 10° W 19:01:31 38° NNW 19:02:29 30° NNE
STARLINK-1222 4.1 18:59:00 10° W 19:01:58 38° NNW 19:02:54 30° NNE
Meteor 1-16 Rocket 4.1 18:58:28 21° SSE 19:02:00 57° E 19:07:22 10° NNE
STARLINK-1211 4.1 18:59:27 10° W 19:02:25 38° NNW 19:03:20 30° NNE
ISS -3.9 18:59:09 10° WNW 19:02:31 89° NNW 19:02:41 80° ESE
Cosmos 2251 Rocket 3.4 18:57:27 10° S 19:02:46 68° ESE 19:08:07 10° NNE
STARLINK-1214 4.1 18:59:54 10° W 19:02:52 38° NNW 19:03:46 30° NNE
STARLINK-1245 4.1 19:00:23 10° W 19:03:20 38° NNW 19:04:11 31° NNE
STARLINK-1238 4.1 19:00:46 10° W 19:03:45 38° NNW 19:04:37 31° NNE
Cosmos 2074 Rocket 3.9 18:57:32 10° N 19:03:51 84° E 19:08:16 21° S
Cosmos 2058 Rocket 4.5 19:05:24 24° ENE 19:05:24 24° ENE 19:07:55 10° NNE
STARLINK-1269 4.1 19:00:05 10° W 19:04:07 58° NNW 19:06:12 26° NE
STARLINK-1205 4.2 19:01:43 10° W 19:04:39 37° NNW 19:05:27 31° NNE
BREEZE-M DEB (TANK) 3.1 18:58:47 10° WNW 19:04:50 89° N 19:05:20 63° ESE
SPOT 5 4.2 19:05:12 20° ENE 19:05:12 20° ENE 19:08:13 10° NNE
STARLINK-1204 4.1 19:02:12 10° W 19:05:08 37° NNW 19:05:53 32° NNE
Cosmos 2084 Rocket 3.6 19:01:07 10° NW 19:05:35 73° SW 19:06:58 43° SSE
STARLINK-1111 3.6 19:02:12 10° WNW 19:06:20 71° SSW 19:07:06 55° SSE
Cosmos 1703 3.4 19:04:31 10° N 19:08:25 54° ENE 19:08:26 54° E
CZ-2C R/B 2.4 19:03:14 10° NNE 19:08:27 80° ESE 19:13:37 10° S
STARLINK-1200 4.1 19:04:55 10° W 19:08:56 56° NNW 19:10:50 28° NE
ERS-1 Rocket 3.9 19:08:38 30° ENE 19:09:07 30° ENE 19:13:29 10° N
Landsat 7 4.3 19:10:47 40° E 19:11:18 41° ENE 19:15:46 10° N
STARLINK-1073 3.6 19:07:11 10° WNW 19:11:18 67° SSW 19:11:53 57° SSE
IGS 5A 4.2 19:12:35 36° ENE 19:12:35 36° ENE 19:16:11 10° N
STARLINK-1192 4.2 19:09:42 10° W 19:13:43 54° NNW 19:15:24 31° NE
STARLINK-1121 3.7 19:12:10 10° WNW 19:16:16 62° SSW 19:16:39 58° S
Cosmos 292 Rocket 4.1 19:11:48 10° NNW 19:16:33 63° WSW 19:18:32 33° S
Cosmos 1610 Rocket 4.4 19:11:55 10° N 19:18:11 72° E 19:20:40 38° SSE
STARLINK-1244 4.3 19:14:39 10° W 19:18:39 52° NNW 19:20:08 33° NE
Cosmos 1656 Rocket 3.8 19:13:40 10° NNW 19:19:19 59° ENE 19:20:40 46° ESE
Meteor 1-11 4.3 19:14:57 10° N 19:20:43 62° ENE 19:22:10 47° SE
STARLINK-1106 3.8 19:17:08 10° WNW 19:21:12 58° SW 19:21:25 57° SSW
MOS 1 Rocket 3.7 19:17:35 10° N 19:22:48 76° WNW 19:28:11 10° SSW
STARLINK-1138 4.3 19:19:17 10° W 19:23:16 51° NNW 19:24:34 36° NE
STARLINK-1112 3.9 19:22:09 10° WNW 19:26:12 54° SW 19:26:14 54° SSW
STARLINK-1143 4.4 19:24:12 10° W 19:28:11 49° NNW 19:29:16 38° NNE
COSMOS 2455 3.9 19:25:06 10° NNW 19:30:30 33° NE 19:32:01 29° ENE
STARLINK-1128 4.1 19:27:08 10° WNW 19:31:01 49° SW 19:31:01 49° SW
Cosmos 1437 4.1 19:29:13 10° NNW 19:31:25 36° NW 19:31:25 36° NW
Cosmos 1726 Rocket 3.4 19:33:41 77° ENE 19:33:41 77° ENE 19:37:56 10° NNE
STARLINK-1113 4.3 19:32:08 10° WNW 19:35:47 45° SW 19:35:47 45° SW
STARLINK-1241 4.4 19:32:37 10° W 19:36:33 46° NNW 19:37:13 42° NNE
Cosmos 2341 Rocket 4.1 19:30:31 10° N 19:36:46 56° ENE 19:37:48 51° ESE
Cosmos 1825 Rocket 4.1 19:32:29 10° NNW 19:36:50 54° W 19:37:53 43° SW
NOSS 3-4 (A) 4.0 19:33:41 10° NW 19:40:31 62° NE 19:42:42 45° E
NOSS 3-4 (C) 4.0 19:33:47 10° NW 19:40:36 62° NE 19:42:48 45° E
Cosmos 2369 Rocket 2.8 19:35:45 10° NW 19:41:16 52° WSW 19:43:14 36° SSW
STARLINK-1239 4.4 19:37:34 10° W 19:41:29 45° N 19:41:56 43° N
Cosmos 1726 3.4 19:42:57 33° WSW 19:43:52 39° WNW 19:47:26 10° N
Cosmos 1461 4.3 19:40:45 10° NNW 19:44:33 31° NE 19:44:33 31° NE
Aureole 2 Rocket 4.3 19:43:03 10° NW 19:45:57 26° W 19:45:57 26° W
STARLINK-1240 4.5 19:42:20 10° W 19:46:14 44° N 19:46:29 44° N
Cosmos 2263 4.4 19:41:49 10° NNW 19:47:22 62° WSW 19:48:35 49° SSW
Cosmos 1908 4.2 19:48:57 42° N 19:48:57 42° N 19:51:40 10° N
NOSS 3-3 (A) 3.9 19:44:17 10° SW 19:50:11 88° NW 19:56:55 10° NE
NOSS 3-3 (C) 3.8 19:44:22 10° SW 19:50:17 89° NW 19:57:01 10° NE
Terra 2.7 19:53:53 37° NE 19:53:53 37° NE 19:57:26 10° N
Cosmos 1953 Rocket 4.1 19:48:46 10° NNW 19:53:07 55° W 19:53:21 54° WSW
Cosmos 1295 Rocket 4.4 19:48:11 10° N 19:54:28 85° W 19:55:56 56° S
Spot 2 Rocket 3.8 19:55:41 52° SW 19:56:31 60° WSW 20:01:36 10° NNW
SPOT 1/Viking Rocket 3.4 20:00:50 82° SW 20:00:57 83° WSW 20:06:13 10° NNW
Cosmos 1943 Rocket 3.8 19:57:47 10° NW 20:02:22 27° WSW 20:04:35 21° SW
Cosmos 2218 Rocket 4.1 19:57:54 10° N 20:03:48 55° ENE 20:03:48 55° ENE
Cosmos 1943 3.3 20:01:04 20° SW 20:05:02 73° WNW 20:10:45 10° NNE
USA 234 3.6 20:06:46 10° NE 20:13:11 62° NNW 20:19:37 10° WSW
ATLAS 2AS CENTAUR R/B 2.7 20:05:39 10° NW 20:13:21 89° SW 20:14:22 70° SE
Cosmos 2181 Rocket 4.0 20:15:29 65° ENE 20:15:29 65° ENE 20:21:09 10° NNE
APEX 4.3 20:09:54 10° NNW 20:16:53 90° E 20:17:01 86° SSE
Resurs 01 Rocket 3.9 20:16:28 15° WSW 20:17:59 18° W 20:21:01 10° NW
Cosmos 921 Rocket 4.5 20:18:57 10° NNW 20:21:21 33° NNW 20:21:21 33° NNW
Cosmos 407 Rocket 4.5 20:26:39 39° NNE 20:26:39 39° NNE 20:29:52 10° NNE
SL-8 Rocket 4.0 20:30:49 10° NNW 20:37:01 76° W 20:37:01 76° W
Mayak 1.5 20:38:34 10° NNE 20:38:57 12° NNE 20:38:57 12° NNE
SPOT 5 4.2 20:44:25 33° NW 20:44:25 33° NW 20:47:04 10° NNW
Cosmos 2366 rocket 4.1 20:38:45 10° N 20:44:18 72° NNW 20:44:18 72° NNW
ERS-1 Rocket 4.1 20:48:38 38° WNW 20:48:38 38° WNW 20:52:33 10° NNW
CZ-4C R/B 4.3 20:44:32 10° NW 20:50:05 28° NNE 20:53:35 20° ENE
Cosmos 1980 Rocket 4.2 20:49:41 10° N 20:53:25 18° NE 20:53:43 18° NE
COSMOS 2455 3.7 21:10:53 10° NW 21:15:09 45° WNW 21:15:09 45° WNW
Terra 4.1 21:32:46 20° WNW 21:32:46 20° WNW 21:34:50 10° NW
ATLAS CENTAUR R/B 4.5 21:31:23 10° NNW 21:31:52 12° N 21:31:52 12° N
USA 234 4.3 21:49:34 10° ENE 21:55:37 41° N 22:01:39 10° WNW
ATLAS 2AS CENTAUR R/B 4.5 21:57:53 10° WNW 22:01:48 21° W 22:01:48 21° W
Cosmos 2344 4.5 21:57:21 10° NW 22:06:30 66° NE 22:09:43 50° E
Cosmos 1697 Rocket 4.3 22:07:17 10° NNW 22:10:11 31° NNW 22:10:11 31° NNW
SL-16 R/B 4.2 22:11:16 10° N 22:15:22 22° NE 22:15:22 22° NE
Mayak 1.8 22:15:00 10° NNW 22:15:32 12° NNW 22:15:32 12° NNW
Cosmos 2322 Rocket 4.1 22:25:32 10° N 22:29:38 23° NE 22:29:38 23° NE
Cosmos 1980 Rocket 3.9 22:32:48 10° NNW 22:35:28 29° NNW 22:35:28 29° NNW
CZ-4C R/B 3.3 22:32:58 10° NW 22:38:44 57° N 22:38:44 57° N
Cosmos 2082 Rocket 3.9 23:00:52 29° NNE 23:00:52 29° NNE 23:03:29 10° NNE
ATLAS 5 CENTAUR R/B 4.2 23:20:06 19° N 23:20:06 19° N 23:23:08 10° NNE
Cosmos 1833 Rocket 4.2 23:28:31 32° N 23:28:31 32° N 23:31:55 10° NNE
CZ-2D R/B 4.0 23:29:53 10° NNE 23:32:53 25° ENE 23:32:53 25° ENE
Resurs 1-4 Rocket 4.0 23:31:23 10° NNE 23:34:06 24° ENE 23:34:06 24° ENE
USA 234 4.0 23:31:41 10° E 23:37:55 49° NNE 23:44:08 10° NW
SL-16 R/B 3.1 23:52:44 55° NNE 23:52:44 55° NNE 23:57:46 10° N
